Flag for Norway Weather past 2 weeks in Førde, Norway

Now
50 °F

Broken clouds.


Feels Like: 46 °F
Forecast: 41 / 65 °F
Wind: 9 mph from Southwest

Location: Forde / Bringeland

Current Time: Jul 31, 2015 at 7:47:51 PM

Latest Report: Jul 31, 2015 at 6:50 PM


Visibility: N/A

Pressure: 29.92 "Hg

Humidity: 71%

Dew point: 41 °F

Location of FørdeLocation

Historic Weather in Førde — Graph

°F

Førde temperature yesterday

Maximum temperature yesterday: 55 °F (at 12:20 PM)
Minimum temperature yesterday: 48 °F (at 9:20 PM)
Average temperature yesterday: 52 °F

Past Weeks' High & Low Weather Summary

 TemperatureHumidityPressure
High64 °F (Jul 28, 1:50 PM)100% (Jul 17, 11:20 AM)30.12 "Hg (Jul 17, 11:20 AM)
Low43 °F (Jul 17, 5:50 AM)42% (Jul 17, 1:20 PM)29.47 "Hg (Jul 18, 1:50 PM)
Average53 °F80%29.67 "Hg
* Reported Jul 16 6:20 PM — Jul 31 6:50 PM, Førde, Weather by CustomWeather, © 2015

Note: Actual official high and low records may vary slightly from our data, if they occured in-between our weather recording intervals... More about our weather records

Advertising

Førde weather history for previous 24 hours

 ConditionsComfort  
Time TempWeatherWind HumidityBarometerVisibility
6:50 PM
Fri, Jul 31
50 °FBroken clouds.9 mph71%29.92 "HgN/A
6:20 PM50 °FBroken clouds.10 mph71%29.92 "HgN/A
5:50 PM50 °FBroken clouds.10 mph71%29.92 "HgN/A
5:20 PM50 °FBroken clouds.9 mph71%29.92 "HgN/A
4:50 PM50 °FBroken clouds.10 mph76%29.92 "HgN/A
4:20 PM50 °FBroken clouds.12 mph71%29.92 "HgN/A
3:50 PM50 °FBroken clouds.13 mph71%29.92 "HgN/A
3:20 PM52 °FBroken clouds.12 mph72%29.92 "HgN/A
2:50 PM52 °FScattered showers. Broken clouds.12 mph72%29.89 "HgN/A
2:20 PM50 °FScattered showers. Broken clouds.14 mph76%29.89 "HgN/A
1:50 PM50 °FScattered showers. Broken clouds.14 mph82%29.89 "HgN/A
1:20 PM52 °FScattered showers. Broken clouds.10 mph77%29.89 "HgN/A
12:50 PM52 °FScattered showers. Broken clouds.12 mph77%29.89 "HgN/A
12:20 PM48 °FScattered showers. Broken clouds.12 mph82%29.89 "HgN/A
11:50 AM48 °FScattered showers. Broken clouds.16 mph87%29.89 "HgN/A
11:20 AM50 °FScattered showers. Broken clouds.6 mph76%29.86 "HgN/A
10:20 AM48 °FSleet. Broken clouds.5 mph82%29.86 "HgN/A
9:20 AM46 °FRain showers. Broken clouds.6 mph87%29.86 "HgN/A
8:50 AM46 °FScattered showers. Partly sunny.5 mph87%29.86 "HgN/A
8:20 AM46 °FPartly sunny.5 mph87%29.86 "HgN/A
7:50 AM45 °FPartly sunny.2 mph93%29.86 "HgN/A
6:50 AM45 °FScattered showers. Scattered clouds.2 mph93%29.83 "HgN/A
5:50 AM45 °FPassing clouds.6 mph93%29.83 "HgN/A
11:20 PM
Thu, Jul 30
48 °FBroken clouds.3 mph82%29.77 "HgN/A
10:50 PM48 °FBroken clouds.2 mph76%29.77 "HgN/A
10:20 PM48 °FBroken clouds.2 mph82%29.77 "HgN/A
9:50 PM48 °FBroken clouds.5 mph82%29.74 "HgN/A
9:20 PM48 °FScattered showers. Broken clouds.5 mph87%29.74 "HgN/A
8:50 PM50 °FScattered showers. Broken clouds.5 mph82%29.74 "HgN/A
8:20 PM50 °FScattered showers. Broken clouds.8 mph82%29.74 "HgN/A
7:50 PM50 °FScattered showers. Broken clouds.3 mph82%29.71 "HgN/A
7:20 PM50 °FScattered showers. Broken clouds.8 mph88%29.71 "HgN/A
Weather by CustomWeather, © 2015

See weather overviewHow to use our weather pages